Regional Weather Roundup
Issued by NWS

Home | Current Version | Previous Version | Text Only | Print | Product List | Glossary Off
Versions: 1 2 3 4 5 6 7 8 9 10 11 12 13 14 15 16 17 18 19 20 21 22 23 24 25 26 27 28 29 30 31 32 33 34 35 36 37 38 39 40 41 42 43 44 45 46 47 48 49 50

000
ASUS43 KMPX 311310
RWRMN
WEATHER ROUNDUP FOR MINNESOTA
NATIONAL WEATHER SERVICE TWIN CITIES/CHANHASSEN MN
800 AM CDT FRI JUL 31 2015


NOTE: "FAIR" INDICATES FEW OR NO CLOUDS BELOW 12,000 FEET WITH NO
SIGNIFICANT WEATHER AND/OR OBSTRUCTIONS TO VISIBILITY. N/A MEANS
CURRENT SKY AND/OR WEATHER CONDITIONS ARE NOT AVAILABLE.

MNZ060>063-068>070-311400-
   Twin Cities Metro

CITY           SKY/WX    TMP DP  RH WIND       PRES   REMARKS
TWIN CITIES    SUNNY     70  54  56 W13       30.07R
ST PAUL        SUNNY     70  54  56 NW12      30.07R
CRYSTAL        SUNNY     70  54  56 W12       30.06R
LAKEVILLE      SUNNY     66  57  72 W7        30.08S
EDEN PRAIRIE   SUNNY     69  56  62 W9        30.08R
SOUTH ST PAUL  SUNNY     69  55  59 W10       30.07R
LAKE ELMO      FAIR      68  55  64 W9        30.07S
$$
MNZ001>005-007-008-013>017-022>024-027-028-311400-
   Northwest Minnesota

CITY           SKY/WX    TMP DP  RH WIND       PRES   REMARKS
BEMIDJI        SUNNY     60  51  71 W10       30.04S
HALLOCK        SUNNY     61  54  77 W6        30.02S
ROSEAU         SUNNY     61  54  77 W10       30.00R
WARROAD        SUNNY     59  54  82 W13       29.99R
THIEF RVR FALL SUNNY     61  52  72 W8        30.05R
CROOKSTON      SUNNY     61  55  82 W8        30.07R
FOSSTON        SUNNY     61  52  72 SW6       30.07R
DETROIT LAKES  SUNNY     64  52  63 NW8       30.10R
MOORHEAD       SUNNY     63  55  77 W5        30.10S
PARK RAPIDS    SUNNY     62  53  72 W10       30.07R
MAHNOMEN       FAIR      59  53  82 W8        30.08R
$$
MNZ006-009>011-018-025>026-311400-
   North Central Minnesota

CITY           SKY/WX    TMP DP  RH WIND       PRES   REMARKS
BAUDETTE       SUNNY     61  54  77 W8        29.97S
FLAG ISLAND    SUNNY     61  55  82 W15       29.95R
INTL FALLS     SUNNY     60  55  83 W8        29.95R
WASKISH        SUNNY     63  55  77 W13       30.01R
BIG FORK       SUNNY     63  54  72 W7        30.00R
LONGVILLE      SUNNY     63  54  72 W8        30.04R
GRAND RAPIDS   SUNNY     63  52  67 NW12G17   30.02R
ORR            SUNNY     59  52  77 W7        29.94S
COOK           SUNNY     61  54  77 W9        29.97S
WALKER         FAIR      60  51  73 W8G16     30.04S
$$
MNZ012-019>021-037-311400-
   Northeast Minnesota

CITY           SKY/WX    TMP DP  RH WIND       PRES   REMARKS
DULUTH         SUNNY     64  53  67 W15       29.97R
ELY            SUNNY     61  54  77 W12       29.94R
HIBBING        SUNNY     63  53  70 W12       29.98R
EVELETH        SUNNY     63  52  67 NW13G20   29.98R
DULUTH HARBOR  SUNNY     66  55  68 W14       29.97R
TWO HARBORS    SUNNY     66  57  72 W8        29.93R
SILVER BAY     SUNNY     66  55  68 W5        29.91S
GRAND MARAIS     N/A     67  55  65 VRB6G17   29.85S
G MARAIS ARPRT SUNNY     61  52  72 W8        29.90S
$$
MNZ029>031-032-039>041-046>048-054>057-064-311400-
   West Central Minnesota

CITY           SKY/WX    TMP DP  RH WIND       PRES   REMARKS
FERGUS FALLS   SUNNY     57  55  94 CALM      30.12R
WHEATON        SUNNY     63  54  72 W5        30.14S
MORRIS         SUNNY     64  57  77 W5        30.12R
ALEXANDRIA     SUNNY     65  55  70 W9        30.13R
ELBOW LAKE     FAIR      59  55  86 W5        30.12R
WADENA         SUNNY     63  54  72 W7        30.08S
GLENWOOD       SUNNY     63  55  77 W6        30.13R
APPLETON       SUNNY     63  57  82 W5        30.12F
BENSON         SUNNY     64  55  72 NW6       30.13R
ORTONVILLE     SUNNY     66  54  63 W6        30.13S
MADISON        SUNNY     64  55  72 NW7       30.13F
WILLMAR        FAIR      64  59  82 W6        30.14R
$$
MNZ033>034-036-042>043-049>051-058-059-311400-
   Central Minnesota

CITY           SKY/WX    TMP DP  RH WIND       PRES   REMARKS
ST CLOUD       SUNNY     67  53  61 W13       30.08R
SAUK CENTRE    FAIR      62  57  84 W7        30.11R
PAYNESVILLE    SUNNY     60  57  91 SW6       30.12R
AITKIN         SUNNY     64  54  68 W5        30.03R
PINE RIVER     SUNNY     61  52  72 W7        30.08S
BRAINERD       SUNNY     64  52  64 W8G20     30.06R
STAPLES        SUNNY     63  52  67 W9        30.08S
LONG PRAIRIE   FAIR      63  54  72 W7        30.11R
LITTLE FALLS   SUNNY     63  52  67 W6        30.08S
LITCHFIELD     SUNNY     66  61  82 W7        30.12R
BUFFALO        SUNNY     66  56  70 W8        30.11R
MAPLE LAKE     SUNNY     66  57  72 W6        30.10R
$$
MNZ037-044-045-052-053-311400-
   East Central Minnesota

CITY           SKY/WX    TMP DP  RH WIND       PRES   REMARKS
PRINCETON      SUNNY     66  55  68 W8        30.07R
MORA           SUNNY     63  52  67 W9        30.06R
CAMBRIDGE      SUNNY     70  54  56 W9        30.04R
RUSH CITY      SUNNY     64  54  68 W6        30.05R
MOOSE LAKE     SUNNY     63  52  67 W6        30.00R
HINCKLEY       FAIR      63  55  77 W9        30.03R
CLOQUET        SUNNY     64  52  63 W8        29.99R
MCGREGOR       SUNNY     63  52  67 W7        30.03R
$$
MNZ071>073-080-081-089-090-097-098-311400-
   Southwest Minnesota

CITY           SKY/WX    TMP DP  RH WIND       PRES   REMARKS
MONTEVIDEO     SUNNY     68  61  77 NW6       30.15S
GRANITE FALLS  SUNNY     62  57  85 W3        30.15S
CANBY          SUNNY     66  56  72 W6        30.16S
MARSHALL       SUNNY     66  54  63 NW6       30.16R
REDWOOD FALLS  SUNNY     66  57  72 NW5       30.13R
OLIVIA         SUNNY     61  55  82 W5        30.12S
PIPESTONE      SUNNY     66  55  68 CALM      30.17R
WINDOM         MOSUNNY   64  57  77 CALM      30.16R
WORTHINGTON    PTSUNNY   64  57  77 CALM      30.17R
JACKSON        MOSUNNY   66  61  82 NW5       30.16R
TRACY          MOSUNNY   66  57  72 W5        30.16S
SLAYTON        CLOUDY    67  59  76 CALM      30.17S
$$
MNZ065>067-074>077-082>085-091>093-311400-
   South Central Minnesota

CITY           SKY/WX    TMP DP  RH WIND       PRES   REMARKS
MANKATO        SUNNY     66  57  72 W6        30.12R
NEW ULM        SUNNY     64  61  88 NW5       30.13R
ST JAMES       SUNNY     66  61  82 W7        30.15R
FAIRMONT       PTSUNNY   68  55  64 NW7       30.14R
GLENCOE        SUNNY     66  60  80 W6        30.10S
FARIBAULT      SUNNY     66  59  77 W7        30.11R
OWATONNA       SUNNY     66  61  82 W6        30.11R
WASECA         SUNNY     63  59  88 CALM      30.13R
ALBERT LEA     SUNNY     66  61  82 W3        30.12S
$$
MNZ078>079-086>088-094>096-311400-
   Southeast Minnesota

CITY           SKY/WX    TMP DP  RH WIND       PRES   REMARKS
ROCHESTER      SUNNY     65  60  84 W9        30.11R
RED WING       SUNNY     68  61  77 W7        30.05S
STANTON        SUNNY     66  58  76 W7        30.08R
DODGE CENTER   SUNNY     66  57  72 W8        30.11R
WINONA         SUNNY     70  57  64 NW8       30.05S
AUSTIN         SUNNY     70  61  73 W8        30.11S
PRESTON        SUNNY     66  58  77 NW9       30.10R
$$
ABBREVIATIONS USED IN REMARKS
   TC - TEMPERATURES IN CELSIUS
  WCI - WIND CHILL INDEX
   HX - HEAT INDEX
  VSB - VISIBILITY
$$



USA.gov is the U.S. government's official web portal to all federal, state and local government web resources and services.